TimeEST,TemperatureF,Dew PointF,Humidity,Sea Level PressureIn,VisibilityMPH,Wind Direction,Wind SpeedMPH,Gust SpeedMPH,PrecipitationIn,Events,Conditions,WindDirDegrees,DateUTC
12:54 AM,21.9,12.0,66,30.27,10.0,Calm,Calm,-,N/A,,Clear,0,2008-12-08 05:54:00
1:54 AM,19.9,12.9,74,30.27,10.0,Calm,Calm,-,N/A,,Clear,0,2008-12-08 06:54:00
2:54 AM,21.0,14.0,74,30.28,10.0,Calm,Calm,-,N/A,,Clear,0,2008-12-08 07:54:00
3:54 AM,19.9,14.0,78,30.29,10.0,Calm,Calm,-,N/A,,Clear,0,2008-12-08 08:54:00
4:54 AM,19.0,14.0,81,30.31,10.0,Calm,Calm,-,N/A,,Clear,0,2008-12-08 09:54:00
5:54 AM,19.9,14.0,78,30.34,10.0,Calm,Calm,-,N/A,,Clear,0,2008-12-08 10:54:00
6:54 AM,19.9,14.0,78,30.36,10.0,Calm,Calm,-,N/A,,Clear,0,2008-12-08 11:54:00
7:54 AM,19.9,15.1,81,30.38,10.0,South,3.5,-,N/A,,Clear,170,2008-12-08 12:54:00
8:54 AM,24.1,17.1,75,30.39,10.0,SSE,3.5,-,N/A,,Clear,160,2008-12-08 13:54:00
9:54 AM,34.0,12.0,40,30.38,10.0,SSE,5.8,-,N/A,,Clear,150,2008-12-08 14:54:00
10:54 AM,37.0,12.0,36,30.37,10.0,SSE,5.8,-,N/A,,Clear,150,2008-12-08 15:54:00
11:54 AM,39.9,12.0,32,30.33,10.0,East,6.9,-,N/A,,Clear,100,2008-12-08 16:54:00
12:54 PM,43.0,12.0,28,30.30,10.0,ESE,5.8,-,N/A,,Clear,120,2008-12-08 17:54:00
1:54 PM,45.0,12.0,26,30.27,10.0,SE,6.9,-,N/A,,Clear,130,2008-12-08 18:54:00
2:54 PM,45.0,10.9,25,30.27,10.0,SE,8.1,-,N/A,,Clear,130,2008-12-08 19:54:00
3:54 PM,43.0,12.0,28,30.28,10.0,SE,9.2,-,N/A,,Clear,130,2008-12-08 20:54:00
4:54 PM,42.1,12.9,31,30.30,10.0,Variable,6.9,-,N/A,,Clear,0,2008-12-08 21:54:00
5:54 PM,39.9,14.0,35,30.32,10.0,SSE,8.1,-,N/A,,Clear,150,2008-12-08 22:54:00
6:54 PM,37.9,15.1,39,30.34,10.0,SSE,8.1,-,N/A,,Clear,160,2008-12-08 23:54:00
7:54 PM,37.0,15.1,41,30.35,10.0,SSE,5.8,-,N/A,,Clear,150,2008-12-09 00:54:00
8:54 PM,37.9,15.1,39,30.34,10.0,SE,6.9,-,N/A,,Clear,130,2008-12-09 01:54:00
9:54 PM,35.1,17.1,48,30.34,10.0,SSE,6.9,-,N/A,,Clear,160,2008-12-09 02:54:00
10:54 PM,35.1,17.1,48,30.34,10.0,SSE,9.2,-,N/A,,Clear,160,2008-12-09 03:54:00
11:54 PM,36.0,18.0,48,30.33,10.0,SE,3.5,-,N/A,,Overcast,140,2008-12-09 04:54:00